Location: *
(58.4167°N, 22.5000°E)
Time: 09:19:57
(UTC+00:00)

ERBS - Pass Details

Date: 22 September 2019
Orbit: 418 x 425 km, 57.0° (Epoch: 18 October)

Event Time Altitude Azimuth Distance (km) Brightness Sun altitude
Rises 17:46:37 0° 283° (WNW) 2,395 8.3 -10.6°
Reaches altitude 10° 17:48:57 10° 270° (W) 1,526 6.4 -10.9°
Maximum altitude 17:51:46 24° 214° (SW) 926 4.1 -11.2°
Drops below altitude 10° 17:54:35 10° 158° (SSE) 1,519 4.7 -11.6°
Enters shadow 17:54:40 10° 157° (SSE) 1,549 4.7 -11.6°
